Datum Uhrzeit Temperatur Luft Windgeschw. Regen Regen (1h) Temp (1h) Luftdruck Windrichtung Taupunkt Sensor
2018-06-20 05:12:00 12.7 83.0 0.0 0.0 0.0 0.3 9.9 Kombisensor
2018-06-20 04:52:00 12.6 83.0 0.0 0.0 0.0 0.3 9.8 Kombisensor
2018-06-20 04:47:00 12.5 83.0 0.0 0.0 0.0 0.3 9.7 Kombisensor
2018-06-20 04:44:00 12.6 83.0 0.0 0.0 0.0 0.5 9.8 Kombisensor
2018-06-20 04:34:00 12.5 83.0 0.0 0.0 0.0 0.4 9.7 Kombisensor
2018-06-20 04:27:00 12.5 84.0 0.0 0.0 0.0 0.5 9.9 Kombisensor
2018-06-20 04:24:00 12.4 84.0 0.0 0.0 0.0 0.4 9.8 Kombisensor
2018-06-20 04:22:00 12.5 84.0 0.0 0.0 0.0 0.6 9.9 Kombisensor
2018-06-20 04:06:00 12.4 84.0 0.0 0.0 0.0 0.6 9.8 Kombisensor
2018-06-20 03:59:00 12.3 84.0 0.0 0.0 0.0 0.6 9.7 Kombisensor
2018-06-20 03:54:00 12.2 84.0 0.0 0.0 0.0 0.6 9.6 Kombisensor
2018-06-20 03:51:00 12.3 84.0 0.0 0.0 0.0 0.7 9.7 Kombisensor
2018-06-20 03:49:00 12.2 84.0 0.0 0.0 0.0 0.6 9.6 Kombisensor
2018-06-20 03:46:00 12.2 83.0 0.0 0.0 0.0 0.6 9.4 Kombisensor
2018-06-20 03:33:00 12.1 83.0 0.0 0.0 0.0 0.7 9.3 Kombisensor
2018-06-20 03:23:00 12.0 83.0 0.0 0.0 0.0 0.6 9.2 Kombisensor
2018-06-20 03:10:00 11.9 83.0 0.0 0.0 0.0 0.3 9.1 Kombisensor
2018-06-20 03:00:00 11.8 83.0 0.0 0.0 0.0 0.2 9.0 Kombisensor
2018-06-20 02:55:00 11.7 84.0 0.0 0.0 0.0 0.1 9.1 Kombisensor
2018-06-20 02:45:00 11.6 84.0 0.0 0.0 0.0 0.0 9.0 Kombisensor
2018-06-20 02:42:00 11.5 83.0 0.0 0.0 0.0 -0.1 8.7 Kombisensor
2018-06-20 02:27:00 11.4 83.0 0.0 0.0 0.0 -0.2 8.6 Kombisensor
2018-06-20 02:22:00 11.4 82.0 0.0 0.0 0.0 -0.2 8.4 Kombisensor
2018-06-20 02:14:00 11.5 82.0 0.0 0.0 0.0 -0.1 8.5 Kombisensor
2018-06-20 02:09:00 11.6 81.0 0.0 0.0 0.0 0.0 8.4 Kombisensor
2018-06-20 02:04:00 11.7 81.0 0.0 0.0 0.0 0.2 8.6 Kombisensor
2018-06-20 01:36:00 11.6 81.0 0.0 0.0 0.0 0.1 8.4 Kombisensor
2018-06-20 01:24:00 11.6 80.0 0.0 0.0 0.0 0.0 8.3 Kombisensor
2018-06-20 01:08:00 11.6 81.0 0.0 0.0 0.0 0.2 8.4 Kombisensor
2018-06-20 00:53:00 11.5 81.0 0.0 0.0 0.0 0.0 8.4 Kombisensor
2018-06-20 00:51:00 11.5 80.0 0.0 0.0 0.0 0.1 8.2 Kombisensor
2018-06-20 00:38:00 11.4 80.0 0.0 0.0 0.0 -0.1 8.1 Kombisensor
2018-06-20 00:33:00 11.5 80.0 0.0 0.0 0.0 0.0 8.2 Kombisensor
2018-06-20 00:30:00 11.5 79.0 0.0 0.0 0.0 -0.1 8.0 Kombisensor
2018-06-20 00:18:00 11.6 79.0 0.0 0.0 0.0 0.1 8.1 Kombisensor
2018-06-20 00:10:00 11.5 79.0 0.0 0.0 0.0 0.1 8.0 Kombisensor
2018-06-20 00:07:00 11.4 79.0 0.0 0.0 0.0 0.1 7.9 Kombisensor
2018-06-20 00:02:00 11.3 79.0 0.0 0.0 0.0 -0.9 7.8 Kombisensor